• In India
  • List of Countries
  • For 7 days
  • Water Temperature
  • Satellite Maps
  • Weather Map
  • Weather Widgets
  • user-avatar
    Login

    Hourly Weather Goscislaw

    Today, 20 February, Wednesday

    Time Temperature Precipitation Wind Pressure Humidity
    00:00 +3°C° 0 mm 5 mps 746 mmHg 81%
    01:00 +2°C° 0 mm 5 mps 746 mmHg 80%
    02:00 +2°C° 0 mm 5 mps 747 mmHg 81%
    03:00 +2°C° 0 mm 5 mps 747 mmHg 82%
    04:00 +2°C° 0 mm 5 mps 747 mmHg 84%
    05:00 +1°C° 0 mm 5 mps 747 mmHg 84%
    06:00 +1°C° 0 mm 5 mps 747 mmHg 85%
    07:00 +1°C° 0 mm 5 mps 747 mmHg 86%
    08:00 +2°C° 0 mm 5 mps 748 mmHg 80%
    09:00 +3°C° 0 mm 6 mps 748 mmHg 74%
    10:00 +4°C° 0 mm 6 mps 749 mmHg 68%
    11:00 +5°C° 0 mm 6 mps 749 mmHg 65%
    12:00 +7°C° 0 mm 6 mps 749 mmHg 61%
    13:00 +7°C° 0 mm 6 mps 749 mmHg 57%
    14:00 +7°C° 0 mm 6 mps 749 mmHg 59%
    15:00 +7°C° 0 mm 5 mps 749 mmHg 60%
    16:00 +7°C° 0 mm 5 mps 749 mmHg 61%
    17:00 +6°C° 0 mm 4 mps 750 mmHg 66%
    18:00 +5°C° 0 mm 3 mps 750 mmHg 71%
    19:00 +4°C° 0 mm 3 mps 750 mmHg 76%
    20:00 +4°C° 0 mm 3 mps 751 mmHg 77%
    21:00 +4°C° 0 mm 3 mps 751 mmHg 78%
    22:00 +4°C° 0 mm 3 mps 751 mmHg 79%
    23:00 +4°C° 0 mm 3 mps 751 mmHg 79%

    Tomorrow, 21 February, Thursday

    Time Temperature Precipitation Wind Pressure Humidity
    00:00 +4°C° 0 mm 3 mps 751 mmHg 78%
    01:00 +3°C° 0 mm 3 mps 752 mmHg 78%
    02:00 +3°C° 0 mm 3 mps 752 mmHg 79%
    03:00 +3°C° 0 mm 3 mps 751 mmHg 80%
    04:00 +2°C° 0 mm 3 mps 751 mmHg 80%
    05:00 +2°C° 0 mm 3 mps 751 mmHg 81%
    06:00 +2°C° 0 mm 3 mps 751 mmHg 81%
    07:00 +2°C° 0 mm 3 mps 751 mmHg 81%
    08:00 +4°C° 0 mm 4 mps 751 mmHg 76%
    09:00 +5°C° 0 mm 4 mps 751 mmHg 72%
    10:00 +6°C° 0 mm 5 mps 751 mmHg 68%
    11:00 +7°C° 0.2 mm 5 mps 751 mmHg 67%
    12:00 +7°C° 0.2 mm 5 mps 751 mmHg 66%
    13:00 +7°C° 0.2 mm 5 mps 751 mmHg 65%
    14:00 +7°C° 0.7 mm 5 mps 750 mmHg 68%
    15:00 +7°C° 0.7 mm 5 mps 750 mmHg 71%
    16:00 +6°C° 0.7 mm 5 mps 750 mmHg 74%
    17:00 +6°C° 0.2 mm 5 mps 750 mmHg 77%
    18:00 +6°C° 0.2 mm 5 mps 750 mmHg 79%
    19:00 +5°C° 0.2 mm 6 mps 750 mmHg 82%
    20:00 +5°C° 0.3 mm 6 mps 750 mmHg 83%
    21:00 +5°C° 0.3 mm 7 mps 749 mmHg 85%
    22:00 +6°C° 0.3 mm 7 mps 749 mmHg 87%
    23:00 +6°C° 0.4 mm 7 mps 749 mmHg 87%

    Day after tomorrow, 22 February, Friday

    Time Temperature Precipitation Wind Pressure Humidity
    00:00 +6°C° 0.4 mm 7 mps 749 mmHg 88%
    01:00 +6°C° 0.4 mm 7 mps 749 mmHg 89%
    02:00 +5°C° 0.2 mm 7 mps 749 mmHg 89%
    03:00 +5°C° 0.2 mm 7 mps 749 mmHg 88%
    04:00 +5°C° 0.2 mm 6 mps 749 mmHg 88%
    05:00 +5°C° 0.4 mm 7 mps 750 mmHg 88%
    06:00 +5°C° 0.4 mm 7 mps 751 mmHg 89%
    07:00 +5°C° 0.4 mm 7 mps 751 mmHg 89%
    08:00 +3°C° 0.1 mm 7 mps 753 mmHg 85%
    09:00 +2°C° 0.1 mm 6 mps 754 mmHg 82%
    10:00 +1°C° 0.1 mm 6 mps 755 mmHg 78%
    11:00 +1°C° 0 mm 5 mps 756 mmHg 74%
    12:00 +1°C° 0 mm 5 mps 757 mmHg 69%
    13:00 +1°C° 0 mm 5 mps 757 mmHg 64%
    14:00 +1°C° 0 mm 5 mps 758 mmHg 61%
    15:00 +1°C° 0 mm 4 mps 758 mmHg 58%
    16:00 +1°C° 0 mm 4 mps 759 mmHg 54%
    17:00 -1°C° 0 mm 4 mps 760 mmHg 58%
    18:00 -1°C° 0 mm 3 mps 760 mmHg 62%
    19:00 -2°C° 0 mm 3 mps 761 mmHg 65%
    20:00 -2°C° 0 mm 2 mps 761 mmHg 65%
    21:00 -2°C° 0 mm 2 mps 762 mmHg 65%
    22:00 -3°C° 0 mm 2 mps 762 mmHg 65%
    23:00 -3°C° 0 mm 2 mps 763 mmHg 64%

    23 February, Saturday

    Time Temperature Precipitation Wind Pressure Humidity
    00:00 -3°C° 0 mm 2 mps 763 mmHg 63%
    01:00 -3°C° 0 mm 2 mps 763 mmHg 63%
    02:00 -3°C° 0 mm 2 mps 763 mmHg 62%
    03:00 -4°C° 0 mm 2 mps 763 mmHg 61%
    04:00 -4°C° 0 mm 2 mps 762 mmHg 61%
    05:00 -4°C° 0 mm 2 mps 763 mmHg 60%
    06:00 -4°C° 0 mm 2 mps 763 mmHg 59%
    07:00 -4°C° 0 mm 2 mps 763 mmHg 58%
    08:00 -4°C° 0 mm 2 mps 764 mmHg 51%
    09:00 -3°C° 0 mm 2 mps 764 mmHg 44%
    10:00 -2°C° 0 mm 2 mps 764 mmHg 37%
    11:00 -2°C° 0 mm 2 mps 764 mmHg 34%
    12:00 -1°C° 0 mm 2 mps 764 mmHg 30%
    13:00 +1°C° 0 mm 2 mps 764 mmHg 27%
    14:00 +1°C° 0 mm 2 mps 763 mmHg 28%
    15:00 +1°C° 0 mm 2 mps 763 mmHg 28%
    16:00 +1°C° 0 mm 2 mps 763 mmHg 28%
    17:00 -1°C° 0 mm 2 mps 763 mmHg 32%
    18:00 0°C° 0 mm 1 mps 763 mmHg 35%
    19:00 -1°C° 0 mm 1 mps 763 mmHg 38%
    20:00 -1°C° 0 mm 1 mps 763 mmHg 38%
    21:00 -1°C° 0 mm 1 mps 763 mmHg 39%
    22:00 -1°C° 0 mm 1 mps 763 mmHg 39%
    23:00 -1°C° 0 mm 1 mps 763 mmHg 39%

    24 February, Sunday

    Time Temperature Precipitation Wind Pressure Humidity
    00:00 -1°C° 0 mm 1 mps 763 mmHg 38%
    01:00 -1°C° 0 mm 1 mps 763 mmHg 38%
    02:00 -1°C° 0 mm 1 mps 762 mmHg 37%
    03:00 -1°C° 0 mm 1 mps 762 mmHg 36%
    04:00 -1°C° 0 mm 1 mps 762 mmHg 35%
    05:00 -1°C° 0 mm 1 mps 762 mmHg 35%
    06:00 -1°C° 0 mm 1 mps 762 mmHg 34%
    07:00 -1°C° 0 mm 1 mps 761 mmHg 34%
    08:00 -1°C° 0 mm 0 mps 762 mmHg 30%
    09:00 0°C° 0 mm 0 mps 762 mmHg 26%
    10:00 +2°C° 0 mm 0 mps 762 mmHg 22%
    11:00 +3°C° 0 mm 0 mps 761 mmHg 22%
    12:00 +4°C° 0 mm 0 mps 761 mmHg 22%
    13:00 +5°C° 0 mm 0 mps 761 mmHg 22%
    14:00 +5°C° 0 mm 1 mps 761 mmHg 27%
    15:00 +5°C° 0 mm 1 mps 760 mmHg 32%
    16:00 +5°C° 0 mm 1 mps 760 mmHg 36%
    17:00 +4°C° 0 mm 1 mps 760 mmHg 38%
    18:00 +1°C° 0 mm 0 mps 760 mmHg 39%
    19:00 0°C° 0 mm 0 mps 760 mmHg 41%
    20:00 0°C° 0 mm 0 mps 761 mmHg 41%
    21:00 0°C° 0 mm 0 mps 761 mmHg 42%
    22:00 -1°C° 0 mm 0 mps 761 mmHg 42%
    23:00 -1°C° 0 mm 0 mps 761 mmHg 43%

    25 February, Monday

    Time Temperature Precipitation Wind Pressure Humidity
    00:00 +1°C° 0 mm 1 mps 761 mmHg 44%
    01:00 +1°C° 0 mm 1 mps 761 mmHg 44%
    02:00 +1°C° 0 mm 1 mps 761 mmHg 45%
    03:00 +1°C° 0 mm 1 mps 760 mmHg 46%
    04:00 +1°C° 0 mm 1 mps 760 mmHg 46%
    05:00 +1°C° 0 mm 1 mps 760 mmHg 48%
    06:00 -1°C° 0 mm 2 mps 760 mmHg 50%
    07:00 -1°C° 0 mm 2 mps 760 mmHg 52%
    08:00 +1°C° 0 mm 2 mps 760 mmHg 50%
    09:00 +1°C° 0 mm 3 mps 761 mmHg 48%
    10:00 +3°C° 0 mm 3 mps 761 mmHg 46%
    11:00 +4°C° 0 mm 3 mps 760 mmHg 47%
    12:00 +5°C° 0 mm 4 mps 760 mmHg 48%
    13:00 +6°C° 0 mm 4 mps 760 mmHg 48%
    14:00 +6°C° 0 mm 4 mps 760 mmHg 53%
    15:00 +5°C° 0 mm 3 mps 759 mmHg 57%
    16:00 +5°C° 0 mm 3 mps 759 mmHg 61%
    17:00 +4°C° 0 mm 3 mps 759 mmHg 69%
    18:00 +3°C° 0 mm 3 mps 760 mmHg 77%
    19:00 +2°C° 0 mm 2 mps 760 mmHg 85%
    20:00 +2°C° 0 mm 2 mps 760 mmHg 87%
    21:00 +2°C° 0 mm 2 mps 760 mmHg 89%
    22:00 +1°C° 0 mm 2 mps 760 mmHg 91%
    23:00 +1°C° 0 mm 2 mps 760 mmHg 91%
    Show more